Location: Lourdes
(43.1000°N, 0.0500°W)
Time: 05:26:22
(UTC+00:00)

MOS 1 Rocket - Pass Details

Date: 30 November 2020
Orbit: 613 x 831 km, 97.4° (Epoch: 24 January)

Event Time Altitude Azimuth Distance (km) Brightness Sun altitude
Exits shadow 18:03:13 22° 42° (NE) 1,740 4.9 -17.2°
Maximum altitude 18:06:07 38° 95° (E) 1,243 4.1 -17.7°
Drops below altitude 10° 18:11:04 10° 163° (SSE) 2,391 6.0 -18.6°
Sets 18:13:31 0° 171° (S) 3,295 6.8 -19.0°
